[[{"header":{"parameterUnit":"m.s-1","parameterCategory":1,"la1":30.2991,"la2":30.254,"lo1":-89.0895,"lo2":-89.0444,"dy":0.0017,"dx":0.0017,"nx":28,"ny":28,"refTime":"2023-10-08T03:00:00:Z","depth":0,"parameterNumber":2,"parameterNumberName":"U-component_of_WINDS"},"data":[0,0,0,0,0,0,0,0,0,0,0,0,0,0,0,0,0,0,0,0,0,0,0,0,0,0,0,0,0,0,0,0,0,0,0,0,0,0,0,0,0,0,0,0,0,0,0,0,0,0,0,0,0,0,0,0,0,0,-1.2235,-1.2235,0,-1.2256,-1.2257,-1.2257,-1.2201,-1.22,-1.2198,-1.2196,-1.222,-1.2222,-1.2224,0,0,0,0,0,0,0,0,0,0,0,0,0,-1.2146,-1.2148,-1.2235,-1.2235,-1.2235,-1.2256,-1.2257,-1.2257,-1.2202,-1.22,-1.2198,-1.2196,-1.2219,-1.2222,-1.2225,0,0,0,0,0,0,0,0,0,0,0,0,0,-1.2178,-1.2148,-1.2235,-1.221,-1.2208,-1.2256,-1.2257,-1.2257,-1.2202,-1.22,-1.2197,-1.2195,-1.2218,-1.2222,-1.2225,-1.2298,0,0,-1.2235,-1.2237,0,0,0,0,0,0,0,0,-1.2176,-1.2181,-1.2214,-1.2212,-1.221,-1.2224,-1.2234,-1.2271,-1.2203,-1.2205,-1.2196,-1.2193,-1.2223,-1.2226,-1.2236,-1.2299,-1.23,-1.2236,-1.2238,-1.2239,-1.224,0,0,0,0,0,0,0,-1.2174,-1.218,-1.2243,-1.2214,-1.2212,-1.2198,-1.22,-1.2241,-1.2228,-1.2204,-1.22,-1.2203,-1.2222,-1.2233,-1.2236,-1.2301,-1.2236,-1.2239,-1.2241,-1.2242,-1.2424,-1.2426,0,0,0,0,0,0,-1.2175,-1.2178,-1.2243,-1.2244,-1.2186,-1.2202,-1.2204,-1.2222,-1.2228,-1.2226,-1.2206,-1.2201,-1.2228,-1.2232,-1.2237,-1.2322,-1.2239,-1.2242,-1.2244,-1.2421,-1.2424,-1.2427,0,0,0,0,0,0,-1.2173,-1.2181,-1.2242,-1.221,-1.2217,-1.2206,-1.2227,-1.2224,-1.2235,-1.2229,-1.2227,-1.2219,-1.2226,-1.2232,-1.2283,-1.2323,-1.2244,-1.2247,-1.2417,-1.2422,-1.2426,-1.2495,0,0,0,0,0,0,-1.2171,-1.2181,-1.2209,-1.2211,-1.2219,-1.2288,-1.2229,-1.2226,-1.224,-1.2234,-1.2241,-1.224,-1.2225,-1.2278,-1.2286,-1.2326,-1.2249,-1.2414,-1.2419,-1.2424,-1.2489,-1.2501,-1.2511,0,0,0,0,0,-1.2168,-1.2228,-1.221,-1.2219,-1.2253,-1.229,-1.2295,-1.2276,-1.2244,-1.2272,-1.2268,-1.2239,-1.2316,-1.2284,-1.2293,-1.2334,-1.2411,-1.2418,-1.2424,-1.2484,-1.2499,-1.2511,0,0,0,0,0,0,-1.2232,-1.2228,-1.2208,-1.2271,-1.2281,-1.2281,-1.2316,-1.2292,-1.2312,-1.2306,-1.2282,-1.2284,-1.2339,-1.2341,-1.2305,-1.2404,-1.2358,-1.2367,-1.2401,-1.2415,-1.2426,-1.2425,-1.2252,0,0,0,0,0,-1.2253,-1.2283,-1.2278,-1.2334,-1.234,-1.2327,-1.2343,-1.2327,-1.2337,-1.2341,-1.2341,-1.2352,-1.2378,-1.2396,-1.242,-1.2488,-1.2489,-1.2521,-1.2532,-1.2541,-1.2549,-1.2584,-1.2598,-1.2448,-1.2448,-1.2448,0,0,-1.2298,-1.2299,-1.232,-1.2347,-1.2353,-1.2385,-1.2331,-1.2367,-1.2391,-1.2347,-1.2395,-1.2395,-1.2405,-1.2465,-1.2491,-1.2468,-1.259,-1.2549,-1.2556,-1.2559,-1.2592,-1.2606,-1.2619,-1.2452,-1.2451,-1.2451,0,0,-1.2395,-1.2399,-1.2446,-1.2453,-1.2462,-1.2452,-1.2464,-1.2466,-1.2464,-1.2512,-1.2479,-1.2506,-1.2552,-1.2561,-1.2571,-1.2669,-1.2644,-1.2678,-1.2736,-1.2771,-1.2783,-1.2793,-1.2828,-1.2841,-1.2685,-1.2686,-1.2686,0,-1.245,-1.2496,-1.2473,-1.2511,-1.2524,-1.2484,-1.2531,-1.2538,-1.2555,-1.2565,-1.2539,-1.2595,-1.2599,-1.266,-1.2683,-1.2693,-1.2705,-1.2678,-1.2783,-1.2793,-1.2802,-1.2835,-1.2849,-1.269,-1.2689,-1.2689,-1.2688,0,-1.2563,-1.2595,-1.2632,-1.2648,-1.2664,-1.2707,-1.269,-1.2709,-1.2691,-1.2685,-1.2733,-1.2736,-1.276,-1.2772,-1.2756,-1.2831,-1.2816,-1.2787,-1.2741,-1.2821,-1.2852,-1.2864,-1.2696,-1.2694,-1.2693,-1.2692,0,0,-1.2704,-1.2705,-1.2719,-1.2726,-1.2732,-1.2756,-1.2796,-1.2818,-1.2835,-1.2847,-1.288,-1.2919,-1.2891,-1.2903,-1.2887,-1.2917,-1.2994,-1.2884,-1.2884,-1.2905,-1.3076,-1.3099,-1.3115,-1.2977,-1.2979,-1.2981,-1.3076,0,-1.2801,-1.2869,-1.2848,-1.2917,-1.2946,-1.2907,-1.2942,-1.2949,-1.2943,-1.2967,-1.296,-1.2989,-1.295,-1.2956,-1.2984,-1.2979,-1.3029,-1.2972,-1.3008,-1.3009,-1.3008,-1.3131,-1.3155,-1.3245,-1.3087,-1.309,-1.3091,0,-1.2924,-1.294,-1.3011,-1.301,-1.3022,-1.3054,-1.3071,-1.3094,-1.3102,-1.3095,-1.3107,-1.3084,-1.3122,-1.3075,-1.3128,-1.3089,-1.3102,-1.3102,-1.3105,-1.3109,-1.3056,-1.3139,-1.3273,-1.3287,-1.311,-1.3108,-1.3107,0,-1.302,-1.3059,-1.3107,-1.3113,-1.3114,-1.3137,-1.3138,-1.3142,-1.3156,-1.3172,-1.3181,-1.32,-1.3212,-1.3228,-1.321,-1.3177,-1.3266,-1.3217,-1.3262,-1.3262,-1.3284,-1.3283,-1.3423,-1.329,-1.329,-1.329,-1.329,0,-1.3131,-1.3177,-1.315,-1.3179,-1.3228,-1.3203,-1.3253,-1.325,-1.3253,-1.3281,-1.3248,-1.3275,-1.325,-1.3275,-1.3261,-1.3307,-1.3312,-1.3308,-1.3304,-1.3312,-1.3312,-1.3321,-1.3315,-1.3293,-1.3293,-1.3292,-1.3291,0,-1.3249,-1.3232,-1.3281,-1.3277,-1.3277,-1.3313,-1.3309,-1.3336,-1.3327,-1.3363,-1.3369,-1.3355,-1.3382,-1.3366,-1.3393,-1.3384,-1.3444,-1.3431,-1.3442,-1.3439,-1.3485,-1.3481,-1.3636,-1.3655,-1.351,-1.3511,-1.3512,0,-1.3321,-1.3355,-1.3353,-1.3369,-1.3372,-1.3398,-1.3412,-1.3388,-1.3403,-1.3413,-1.3438,-1.3462,-1.348,-1.3525,-1.3517,-1.3538,-1.3526,-1.3578,-1.3529,-1.3535,-1.3527,-1.3526,-1.3529,-1.3589,-1.3591,-1.3592,-1.3593,0,-1.3452,-1.3441,-1.3462,-1.348,-1.3496,-1.3509,-1.3519,-1.3534,-1.351,-1.3529,-1.3555,-1.3569,-1.3596,-1.3621,-1.3637,-1.3639,-1.3613,-1.3609,-1.362,-1.3629,-1.3634,-1.3632,-1.347,-1.3606,-1.3605,-1.3604,-1.3603,-1.3603,-1.3549,-1.3577,-1.358,-1.3603,-1.3608,-1.3618,-1.3642,-1.3635,-1.3656,-1.3676,-1.366,-1.3692,-1.3696,-1.3716,-1.3721,-1.3745,-1.3724,-1.374,-1.3745,-1.375,-1.3756,-1.3629,-1.3748,-1.3747,-1.3747,-1.3747,-1.3746,0,-1.3679,-1.3678,-1.37,-1.3714,-1.3732,-1.3704,-1.3713,-1.3731,-1.3759,-1.3764,-1.3782,-1.3812,-1.3835,-1.3828,-1.3848,-1.3868,-1.3857,-1.3875,-1.3873,-1.3874,-1.3774,-1.3762,-1.3884,-1.3884,-1.3884,-1.3883,-1.3883,-1.3883,-1.3748,-1.3793,-1.3783,-1.383,-1.3828,-1.3858,-1.3866,-1.3875,-1.3879,-1.3914,-1.3932,-1.3926,-1.3927,-1.3946,-1.3966,-1.3963,-1.3972,-1.3995,-1.3988,-1.3895,-1.3881,-1.3868,-1.3857,-1.3997,-1.3997,-1.4086,-1.4087,-1.4087]},{"header":{"parameterUnit":"m.s-1","parameterCategory":1,"la1":30.2991,"la2":30.254,"lo1":-89.0895,"lo2":-89.0444,"dy":0.0017,"dx":0.0017,"nx":28,"ny":28,"refTime":"2023-10-08T03:00:00:Z","depth":0,"parameterNumber":3,"parameterNumberName":"V-component_of_WINDS"},"data":[0,0,0,0,0,0,0,0,0,0,0,0,0,0,0,0,0,0,0,0,0,0,0,0,0,0,0,0,0,0,0,0,0,0,0,0,0,0,0,0,0,0,0,0,0,0,0,0,0,0,0,0,0,0,0,0,0,0,-6.7173,-6.7174,0,-6.729,-6.7291,-6.7292,-6.7177,-6.7172,-6.7168,-6.7163,-6.7277,-6.7284,-6.7291,0,0,0,0,0,0,0,0,0,0,0,0,0,-6.6845,-6.6851,-6.7173,-6.7174,-6.7176,-6.7289,-6.7291,-6.7292,-6.7177,-6.7172,-6.7166,-6.7161,-6.7274,-6.7283,-6.7292,0,0,0,0,0,0,0,0,0,0,0,0,0,-6.6977,-6.6854,-6.7173,-6.7132,-6.713,-6.7289,-6.7291,-6.7293,-6.7179,-6.7172,-6.7165,-6.7159,-6.7272,-6.7282,-6.7293,-6.7496,0,0,-6.7326,-6.7331,0,0,0,0,0,0,0,0,-6.6969,-6.6989,-6.7137,-6.7135,-6.7133,-6.7212,-6.7217,-6.7361,-6.718,-6.716,-6.7163,-6.7155,-6.726,-6.7272,-6.7308,-6.7501,-6.7506,-6.7327,-6.7334,-6.7338,-6.7341,0,0,0,0,0,0,0,-6.696,-6.6983,-6.7219,-6.7139,-6.7137,-6.7106,-6.7118,-6.7243,-6.7246,-6.7161,-6.7153,-6.7169,-6.7258,-6.7298,-6.731,-6.7508,-6.7327,-6.7336,-6.7343,-6.7347,-6.7873,-6.788,0,0,0,0,0,0,-6.6956,-6.6976,-6.7215,-6.7222,-6.7033,-6.7118,-6.713,-6.7193,-6.7245,-6.7246,-6.7174,-6.7163,-6.7283,-6.7297,-6.7314,-6.7555,-6.7338,-6.7348,-6.7355,-6.7865,-6.7874,-6.7882,0,0,0,0,0,0,-6.695,-6.6979,-6.721,-6.7097,-6.7124,-6.7131,-6.7202,-6.7199,-6.7239,-6.7255,-6.7254,-6.7215,-6.7278,-6.7298,-6.7452,-6.7557,-6.7353,-6.7363,-6.7856,-6.7868,-6.7878,-6.8039,0,0,0,0,0,0,-6.6941,-6.6977,-6.7056,-6.71,-6.7131,-6.7349,-6.7209,-6.7206,-6.7259,-6.7245,-6.7293,-6.7295,-6.7274,-6.7436,-6.7463,-6.7568,-6.7372,-6.7847,-6.7862,-6.7875,-6.8024,-6.8054,-6.808,0,0,0,0,0,-6.693,-6.7095,-6.7061,-6.709,-6.723,-6.7355,-6.7373,-6.7348,-6.7268,-6.7346,-6.7356,-6.7293,-6.7541,-6.7453,-6.7482,-6.7592,-6.784,-6.7857,-6.7874,-6.8012,-6.8048,-6.8079,0,0,0,0,0,0,-6.7061,-6.71,-6.7062,-6.7247,-6.7299,-6.7336,-6.7434,-6.7387,-6.7461,-6.7445,-6.7408,-6.742,-6.7583,-6.7602,-6.7503,-6.7791,-6.7677,-6.7701,-6.7773,-6.7808,-6.7835,-6.7827,-6.7381,0,0,0,0,0,-6.7112,-6.7213,-6.7241,-6.7401,-6.7429,-6.7428,-6.7481,-6.7458,-6.7509,-6.7529,-6.7551,-6.7601,-6.769,-6.775,-6.7833,-6.8026,-6.8035,-6.8116,-6.8144,-6.8167,-6.8187,-6.8291,-6.8327,-6.7937,-6.7937,-6.7937,0,0,-6.7218,-6.7252,-6.7317,-6.7429,-6.7466,-6.7569,-6.7447,-6.7561,-6.7637,-6.7546,-6.7693,-6.7711,-6.7764,-6.7939,-6.8017,-6.796,-6.8297,-6.8188,-6.8206,-6.8214,-6.8312,-6.8349,-6.8382,-6.7948,-6.7946,-6.7945,0,0,-6.7463,-6.75,-6.7637,-6.7678,-6.7737,-6.7734,-6.7767,-6.7811,-6.782,-6.7968,-6.7902,-6.799,-6.8145,-6.8186,-6.8227,-6.8488,-6.8433,-6.8516,-6.8661,-6.8763,-6.8793,-6.882,-6.8914,-6.8947,-6.8536,-6.8537,-6.8537,0,-6.7587,-6.7742,-6.7713,-6.7834,-6.7884,-6.7809,-6.7947,-6.7987,-6.8069,-6.8105,-6.8041,-6.8234,-6.8264,-6.8448,-6.8512,-6.8547,-6.8583,-6.8511,-6.8792,-6.8818,-6.8843,-6.8932,-6.8967,-6.8547,-6.8545,-6.8544,-6.8544,0,-6.789,-6.7999,-6.8103,-6.8187,-6.8249,-6.8377,-6.8367,-6.8433,-6.8404,-6.8408,-6.8558,-6.8592,-6.8681,-6.8722,-6.8694,-6.8902,-6.8865,-6.8797,-6.8682,-6.8891,-6.8973,-6.9007,-6.8561,-6.8557,-6.8554,-6.8552,0,0,-6.8222,-6.8289,-6.8328,-6.8365,-6.8425,-6.8507,-6.8631,-6.872,-6.8777,-6.8836,-6.8939,-6.9071,-6.9009,-6.9056,-6.9031,-6.9121,-6.9325,-6.9041,-6.9042,-6.9093,-6.9556,-6.9607,-6.9647,-6.9289,-6.9295,-6.93,-6.9551,0,-6.8469,-6.8688,-6.8666,-6.8873,-6.8973,-6.8902,-6.901,-6.9058,-6.9065,-6.9148,-6.9154,-6.925,-6.916,-6.9188,-6.9273,-6.9283,-6.9418,-6.9264,-6.9383,-6.9387,-6.9372,-6.969,-6.9744,-6.9979,-6.9583,-6.9589,-6.9593,0,-6.8787,-6.886,-6.9078,-6.9123,-6.9163,-6.9261,-6.9341,-6.9422,-6.9474,-6.9472,-6.9526,-6.9486,-6.9609,-6.9492,-6.966,-6.9556,-6.9603,-6.9615,-6.9623,-6.9634,-6.9503,-6.9708,-7.0054,-7.0089,-6.9643,-6.9639,-6.9635,0,-6.9007,-6.916,-6.931,-6.9343,-6.9399,-6.947,-6.9496,-6.9541,-6.9596,-6.9664,-6.9699,-6.9781,-6.9825,-6.9888,-6.9871,-6.9787,-7.0044,-6.9925,-7.0045,-7.0046,-7.0102,-7.0099,-7.046,-7.0133,-7.0132,-7.0131,-7.0131,0,-6.9286,-6.9422,-6.941,-6.9502,-6.9652,-6.9624,-6.9773,-6.9789,-6.983,-6.9923,-6.9866,-6.9954,-6.9926,-7.0012,-6.9999,-7.014,-7.016,-7.0162,-7.0157,-7.0167,-7.0167,-7.0198,-7.0181,-7.0141,-7.0139,-7.0137,-7.0135,0,-6.9558,-6.9555,-6.9714,-6.9754,-6.9767,-6.9876,-6.9909,-6.9995,-6.9998,-7.0116,-7.0142,-7.0145,-7.0244,-7.0233,-7.0342,-7.0333,-7.0509,-7.0484,-7.0493,-7.0487,-7.0608,-7.0597,-7.1002,-7.1053,-7.0692,-7.0696,-7.0698,0,-6.9736,-6.9839,-6.9891,-6.9951,-6.9982,-7.0078,-7.0134,-7.0111,-7.0171,-7.0238,-7.0316,-7.041,-7.0483,-7.0643,-7.0654,-7.0738,-7.0714,-7.085,-7.0726,-7.0734,-7.0716,-7.0711,-7.0721,-7.0875,-7.0879,-7.0882,-7.0885,0,-7.0052,-7.0046,-7.013,-7.0215,-7.0284,-7.0349,-7.0408,-7.0459,-7.0441,-7.0511,-7.0613,-7.067,-7.0783,-7.0876,-7.0955,-7.0979,-7.093,-7.0924,-7.0956,-7.0968,-7.0969,-7.097,-7.056,-7.0915,-7.0912,-7.091,-7.0908,-7.0907,-7.0283,-7.0371,-7.0422,-7.0518,-7.056,-7.0616,-7.07,-7.0713,-7.0798,-7.0889,-7.0869,-7.0984,-7.1031,-7.1132,-7.1165,-7.1252,-7.1202,-7.1249,-7.1261,-7.1273,-7.1287,-7.0955,-7.1266,-7.1265,-7.1264,-7.1264,-7.1263,0,-7.0596,-7.0626,-7.0714,-7.0799,-7.0875,-7.0823,-7.0885,-7.0951,-7.1053,-7.1103,-7.1177,-7.1293,-7.1383,-7.1402,-7.1488,-7.1554,-7.1533,-7.1577,-7.1572,-7.1579,-7.1327,-7.129,-7.1593,-7.1593,-7.1593,-7.1593,-7.1593,-7.1592,-7.0768,-7.0916,-7.0916,-7.1083,-7.111,-7.1224,-7.1264,-7.1315,-7.1354,-7.1488,-7.1563,-7.1575,-7.1612,-7.17,-7.178,-7.1783,-7.1817,-7.1871,-7.1865,-7.1629,-7.1596,-7.1565,-7.1531,-7.1878,-7.1879,-7.2109,-7.2111,-7.2113]}]]